sat.trackr.live / text

‹ back to catalog

STARLINK-37558

NORAD 69239 · 2026-117B

PAYLOAD ACTIVE UNKNOWN

§ Identity

Operator
Country
US
Launch date
2026-05-29
Launch site
AFETR
Launch vehicle
Mass (kg)
RCS (m²)

Purposes: comms

External: N2YO · Heavens-Above · Gunter

§ Orbital elements

Epoch: 2026-09-19T10:37:12.612576Z

Period
93.85 min
Inclination
53.1601°
Eccentricity
0.0000765
Mean motion
15.34402059 rev/d
Perigee alt
462.2 km
Apogee alt
463.2 km
Semi-major
6,840.8 km
B*
3.3636e-4
RAAN
158.7589°
Arg perigee
118.1924°
Mean anomaly
241.9156°
Rev number
1,750

§ Raw data

STARLINK-375581 69239U 26117B   26262.44250709  .00011006  00000+0  33636-3 0  99962 69239  53.1601 158.7589 0000765 118.1924 241.9156 15.34402059 17508

JSON: /api/v1/satellites/69239 · /tle

For live sub-satellite position, see the globe view (requires WebGL).

§ Visibility from observer

Set your observer location to see the next 7 days of passes ≥ 10°. The values pass through the URL so the page stays shareable.

No JS? Fill the form by hand. The geolocation button needs JavaScript.